NOAA 17 DEB

Satellite information

Favourite Embed

Satellite Type and Status

DEBRISIN ORBIT

Key statistics

Satellite NOAA 17 DEB at a glance.

Uptime

8357

Days in orbit

Revolutions

≈ 14.7

Per day

Orbit

SSO

Sun Synchronous Orbit

Inclination

98.7

Latest

Satellite identification and parameters

Extended collection of information and parameters for NOAA 17 DEB.

Object identification

Identified? True

Debris? True

Object name: NOAA 17 DEB

International designator: 2002-032DK

Object number (NORAD): 49481

Object ID (CCSDS): 49481

Country: UNITED STATES OF AMERICA (US)

Current information (Y/N): Y

RCS size: SMALL

Orbital parameters

Period: 97.746 minutes

Inclination: 98.6964 deg

SMA: 7028.982 km

Apoapsis: 664.699 km

Periapsis: 636.996 km

RAAN: 108.5256 deg

Eccentricy: 0.0019706

Argument of periapsis: 59.0577 deg

Mean anomaly: 301.2562 deg

Mean motion: 14.73208053 rev/day

Mean motion (dot): 0.00034714 rev/day2

B* drag term: 0.0053452 1/REarth

Two-line elements (TLE)

Creation date: May 11, 2025, 2:40 a.m.

Reference frame: TEME

Reference center: EARTH

Epoch: May 10, 2025, 5:19 p.m. UTC

TLE line 0: 0 NOAA 17 DEB

TLE line 1: 1 49481U 02032DK 25130.72187827 .00034714 00000-0 53452-2 0 9996

TLE line 2: 2 49481 98.6964 108.5256 0019706 59.0577 301.2562 14.73208053205372

Live tracking on map

Real-time ground track for satellite NOAA 17 DEB.

In-orbit conjunctions

A list of the most updated potential collisions computed for object NOAA 17 DEB.

Target Orbit TCA Probability of collision Miss distance Type
CZ-4C R/B SSO 2024-11-09 02:34:20 0.0002558271 93.0 (m) ROCKET BODY
CZ-2D DEB SSO 2024-11-08 23:34:20 0.0001763068 821.0 (m) DEBRIS
IRIDIUM 36 LEO 2024-06-25 18:27:37 0.002553154 88.0 (m) PAYLOAD

Associated space launch

NOAA M carried weather imagers and microwave and infrared sounders, as well as a SARSAT search-and-rescue package. It had an on-orbit mass of 1475 kg.

NOAA 17 DEB was lifted into orbit during the mission ‘Titan II SLV | NOAA 17’, on board a Titan II SLV space rocket.

The launch took place on June 24, 2002, 6:23 p.m. from Space Launch Complex 4W.

For more information about the launch, click the button.

Launch to space Titan II SLV | NOAA 17
Titan II SLV | NOAA 17

Agency: N/A

Status: Launch Successful

Launch date: June 24, 2002, 6:23 p.m. UTC

Rocket: Titan II SLV

Launch pad: Space Launch Complex 4W

Location: Vandenberg SFB, CA, USA

...

Latest news about this satellite

There are no fresh news available about this satellite. Check back as we update our databases every day.


Newsletter sign-up

Weekly statistics, charts and insights to help you stay on top of the space industry.